Regional Weather Roundup
Issued by NWS Newport/Morehead, NC

Current Version | Previous Version | Graphics & Text | Print | Product List | Glossary Off
Versions: 1 2 3 4 5 6 7 8 9 10 11 12 13 14 15 16 17 18 19 20 21 22 23 24 25 26 27 28 29 30 31 32 33 34 35 36 37 38 39 40 41 42 43 44 45 46 47 48 49 50

239
ASUS42 KMHX 172313
RWRMHX
WEATHER ROUNDUP FOR EASTERN NORTH CAROLINA
NATIONAL WEATHER SERVICE NEWPORT/MOREHEAD CITY NC
700 PM EDT TUE OCT 17 2017

NOTE: "FAIR" INDICATES FEW OR NO CLOUDS BELOW 12,000 FEET
WITH NO SIGNIFICANT WEATHER AND/OR OBSTRUCTIONS TO VISIBILITY

NCZ015>017-031-032-045>047-102-103-180000-
NORTH COAST

CITY           SKY/WX    TMP DP  RH WIND       PRES   REMARKS
EDENTON        CLEAR     56  45  68 CALM      30.31R
ELIZABETH CITY CLOUDY    56  44  64 N12       30.30R
KITTY HAWK     CLOUDY    59  45  60 CALM      30.27R
MANTEO         CLOUDY   N/A N/A N/A NE13G20   30.28R

$$

NCZ045>047-081-094-103-104-180000-
CENTRAL COAST

CITY           SKY/WX    TMP DP  RH WIND       PRES   REMARKS
FRISCO         CLOUDY    62  50  64 NE9G17    30.25R

$$

NCZ095-097-098-100-101-180000-
SOUTHERN COAST

CITY           SKY/WX    TMP DP  RH WIND       PRES   REMARKS
BEAUFORT       MOCLDY    56  45  66 N9        30.27R
CEDAR ISLAND   NOT AVBL
JACKSONVILLE   CLOUDY    59  46  62 NE7       30.27R
PINEY ISLAND     N/A    N/A N/A N/A NE14G24   30.27R
WILMINGTON     CLOUDY    56  45  66 NE5       30.27R


$$

NCZ011>013-027>030-043-044-078>080-089-090>093-098-180000-
COASTAL PLAIN

CITY           SKY/WX    TMP DP  RH WIND       PRES   REMARKS
AHOSKIE        CLEAR     53  44  73 CALM      30.31R
CLINTON        CLEAR     59  43  56 CALM      30.29R
ELIZABETHTOWN  NOT AVBL
GOLDSBORO      CLEAR     58  40  51 N5        30.27R
GREENVILLE     CLEAR     57  43  58 NE5       30.29S
HAVELOCK       CLOUDY    58  45  62 NE13      30.28R
KENANSVILLE    CLEAR     55  45  67 CALM      30.28R
KINSTON        CLEAR     54  45  71 N3        30.29R
NEW BERN       CLOUDY    57  46  66 E9        30.29R
RICHLANDS      CLEAR     54  49  83 CALM      30.28R
ROCKY MOUNT    CLEAR     53  45  74 CALM      30.29S
WASHINGTON     CLEAR     56  44  63 NE6       30.29R
WHITEVILLE     CLEAR     58  46  63 CALM      30.26R

$$

AMZ130-135-150-152-154-156-158-170-250-252-270-ANZ085-086-088-633-658-670-180000-
MARINE OBSERVATIONS

STATION/POSITION TIME  TEMP    WIND        PRES    WAVE   SWELL
                       AIR SEA DIR/SP/G            HT/PER HT/PER
                 (UTC) (F)     (DEG/KT/KT) (MB)    (FT/S) (FT/S)
CHESAPEAKE LIGHT NOT AVBL
64 E VA BEACH    2250   60 67   20/ 16/ 19 1025.3    6/ 7
DUCK             2242   61 69   20/ 14/ 20 1024.9
2 E DUCK         2300      71                N/A     5/ 7   2/11
OREGON INLET     2242   60 66   30/ 13/ 15 1024.9
13E OREGON INLT  2248      71                N/A     6/ 8   5/ 8
HATTERAS CG      2242   62 68   30/ 12/ 18 1024.3
DIAMOND BUOY     2250   65 81   10/ 19/ 23 1023.1    7/10   5/10
CAPE LOOKOUT     2300   60      10/ 14/ 17 1024.4
BEAUFORT LAB     2242   59 71   20/ 10/ 12 1025.1
30 SE NEW RVR IN 2208   64      40/ 17/ 25 1023.7
30 SE NEW RVR IN NOT AVBL
27 SE WRIGHTSVLE 2208   65 77   50/ 17/ 25 1023.2
5 SE WRIGHTSVLE  2208   63 75   50/ 16/ 25 1024.2
225 S CAPE HAT   2250   74 79   40/ 25/ 33 1017.7   13/ 9
41 SE CHARLESTON 2300   69 80   40/ 21/ 27 1021.7

$$




USA.gov is the U.S. government's official web portal to all federal, state and local government web resources and services.